Orlando International, FL

1:32 AM EST on December 16, 2017 (GMT -0500)
Orlando International

Weather History for KMCO - August, 2013

Change the Weather History Date:

Thursday, August 29, 2013

  Actual Average Record
Temperature  
Mean Temperature 83 °F 82 °F  
Max Temperature 92 °F 91 °F 98 °F (1936)
Min Temperature 73 °F 74 °F 65 °F (1896)
Degree Days  
Heating Degree Days 0 0  
Month to date heating degree days 0 0  
Since 1 June heating degree days 0 0  
Since 1 July heating degree days 0 0  
Cooling Degree Days 18 17  
Month to date cooling degree days 543 521  
Year to date cooling degree days 2453 2361  
Since 1 June cooling degree days 1581 1560  
Growing Degree Days 32 (Base 50)    
Moisture  
Dew Point 71 °F    
Average Humidity 68    
Maximum Humidity 94    
Minimum Humidity 41    
Precipitation  
Precipitation 0.00 in 0.21 in 2.07 in (1901)
Month to date precipitation 5.11 6.69  
Year to date precipitation 34.65 36.17  
Sea Level Pressure  
Sea Level Pressure 30.00 in    
Wind  
Wind Speed 4 mph (SW)    
Max Wind Speed 13 mph    
Max Gust Speed 15 mph    
Visibility 10 miles    
Events      
T = Trace of Precipitation, MM = Missing Value Source: NWS Daily Summary

Daily Weather History Graph

Daily Weather History Graph

Search for Another Location

Airport or City:

Trip Planner

Search our weather history database for the weather conditions in past years. The results will help you decide how hot, cold, wet, or windy it might be!

Date:

Astronomy

Aug. 29, 2013 Rise Set
Actual Time 7:02 AM EDT 7:49 PM EDT
Civil Twilight 6:38 AM EDT 8:13 PM EDT
Nautical Twilight 6:09 AM EDT 8:41 PM EDT
Astronomical Twilight 5:40 AM EDT 9:10 PM EDT
Moon 1:06 AM EDT (8/29) 3:02 PM EDT (8/29)
Length of Visible Light 13h 35m
Length of Day
12h 47m
Last Quarter, 38% of the Moon is Illuminated
Aug 29
Last Quarter
Sep 5
New
Sep 12
First Quarter
Sep 19
Full
Sep 26
Last Quarter

Hourly Weather History & Observations

Time (EDT) Temp. Heat Index Dew Point Humidity Pressure Visibility Wind Dir Wind Speed Gust Speed Precip Events Conditions
12:53 AM 75.0 °F - 72.0 °F 90% 30.04 in 10.0 mi Calm Calm - N/A   Scattered Clouds
1:53 AM 75.9 °F - 72.0 °F 87% 30.04 in 10.0 mi Calm Calm - N/A   Partly Cloudy
2:53 AM 73.9 °F - 72.0 °F 93% 30.04 in 10.0 mi SW 3.5 mph - N/A   Partly Cloudy
3:53 AM 75.0 °F - 73.0 °F 94% 30.03 in 10.0 mi West 3.5 mph - N/A   Scattered Clouds
4:53 AM 75.0 °F - 73.0 °F 94% 30.02 in 10.0 mi West 3.5 mph - N/A   Partly Cloudy
5:53 AM 75.0 °F - 73.0 °F 94% 30.02 in 10.0 mi Calm Calm - N/A   Partly Cloudy
6:53 AM 73.0 °F - 72.0 °F 96% 30.02 in 10.0 mi Calm Calm - N/A   Scattered Clouds
7:53 AM 77.0 °F - 73.0 °F 88% 30.03 in 10.0 mi NNW 3.5 mph - N/A   Partly Cloudy
8:53 AM 81.0 °F 85.8 °F 73.0 °F 77% 30.04 in 10.0 mi NW 4.6 mph - N/A   Clear
9:53 AM 82.9 °F 88.0 °F 72.0 °F 69% 30.03 in 10.0 mi Calm Calm - N/A   Clear
10:53 AM 86.0 °F 90.1 °F 69.1 °F 57% 30.04 in 10.0 mi NW 3.5 mph - N/A   Partly Cloudy
11:53 AM 88.0 °F 92.1 °F 69.1 °F 53% 30.03 in 10.0 mi Calm Calm - N/A   Scattered Clouds
12:53 PM 91.0 °F 93.0 °F 64.9 °F 42% 30.02 in 10.0 mi Calm Calm - N/A   Scattered Clouds
1:53 PM 90.0 °F 92.4 °F 66.0 °F 45% 30.01 in 10.0 mi WSW 5.8 mph - N/A   Mostly Cloudy
2:53 PM 90.0 °F 92.8 °F 66.9 °F 46% 29.99 in 10.0 mi Variable 3.5 mph - N/A   Mostly Cloudy
3:53 PM 91.0 °F 94.3 °F 66.9 °F 45% 29.96 in 10.0 mi West 6.9 mph - N/A   Mostly Cloudy
4:53 PM 91.9 °F 95.4 °F 66.9 °F 44% 29.95 in 10.0 mi West 4.6 mph - N/A   Mostly Cloudy
5:53 PM 87.1 °F 93.6 °F 72.0 °F 61% 29.95 in 10.0 mi SE 10.4 mph - N/A   Scattered Clouds
6:53 PM 87.1 °F 93.6 °F 72.0 °F 61% 29.95 in 10.0 mi SSE 6.9 mph - N/A   Scattered Clouds
7:53 PM 84.0 °F 89.0 °F 71.1 °F 65% 29.95 in 10.0 mi SE 5.8 mph - N/A   Mostly Cloudy
8:53 PM 81.0 °F 85.2 °F 72.0 °F 74% 29.96 in 10.0 mi SE 4.6 mph - N/A   Scattered Clouds
9:53 PM 80.1 °F 84.2 °F 73.0 °F 79% 29.99 in 10.0 mi SW 4.6 mph - N/A   Scattered Clouds
10:53 PM 79.0 °F - 73.9 °F 84% 30.00 in 10.0 mi South 4.6 mph - N/A   Scattered Clouds
11:53 PM 78.1 °F - 73.0 °F 84% 30.00 in 10.0 mi South 4.6 mph - N/A   Scattered Clouds